RADUGA-1 2 [-]

Last updated on Tue Jun 27 2023 00:03:02 GMT+0000 (Coordinated Universal Time)

1 21038U 90116A 23176.98108589 -.00000260 00000+0 00000+0 0 9995 2 21038 13.8506 345.8791 0009418 115.1243 257.7411 1.00316379119014
UTC large
Height (km)
Speed (km/s)
/
Latitude / Longitude
Inclination (degrees)
Orbital Period (minutes)
Azimuth
Elevation
Range (km)
Doppler Factor

Next 0 passes for location: London (51.5072 / 0.1276)

Sorry there are no passes over London.